Hlavní strana
METAR-TAF:

METAR-TAF

Letiště :

Tahoua, Niger

zeměpisná šířka: 14-54N, zeměpisná délka: 005-15E, výška: 386 m

Aktuální stav počasí

Zpráva byla vytvořena před 25 minutami, v 09:00 UTC
Východní vítr 8 kt
Teplota 26°C
Vlhkost vzduchu 11%
Tlak 1015 hPa
Viditelnost 10 km a více
Žádná oblačnost pod 1500 m, nevyskytují se cumulonimby.

METAR: DRRT 110900Z 10008KT CAVOK 26/M07 Q1015

Čas: 10:25 (09:25 UTC)


TAF: chybějící

Stav a předpovědi počasí z více než 4 000 letišť (zprávy METAR a TAF).

Červené a žluté tečky na mapě představují dostupné meteorologické stanice.

Když kurzor umístíte na tečku, zobrazí se název stanice.

Pak kliknutím zobrazíte stav a předpověď počasí.

Chcete-li změnit mapu, kliknutím na zelené tlačítko se znaménkem +mapu přiblížíte, kliknutím na zelené tlačítko se znaménkem – mapu oddálíte a kliknutím na zelené šipky přejdete na sousední mapy.


METAR-TAF: